Location: Владивосток
(43.1151°N, 131.8856°E)
Time: 19:38:02
(UTC+10:00)

LO-87 - Pass Details

Date: 09 July 2022
Orbit: 451 x 466 km, 97.4° (Epoch: 13 August)

Event Time Altitude Azimuth Distance (km) Brightness Sun altitude
Exits shadow 00:58:31 44° 323° (NW) 654 ? -24.3°
Drops below altitude 10° 01:01:05 10° 342° (NNW) 1,631 ? -24.3°
Sets 01:03:10 0° 345° (NNW) 2,516 ? -24.4°
